FW6247 Weather Reports


Display with metric or nautical units.
time (UTC)temp
F
wind
direction
speed
MPH
gust
MPH
rain 1hr
in
rain 24hr
in
rain mn
in
humidity
%
barometer
mb
20260904143040 49 214 0.0 3.0 0.00 0.00 0.00 91 1014.9
20260904141546 49 194 0.0 3.0 0.00 0.00 0.00 91 1014.7
20260904140038 49 159 2.0 4.0 0.00 0.00 0.00 91 1014.7
20260904133037 48 170 0.0 3.0 0.00 0.00 0.00 90 1014.3
20260904130036 48 183 2.0 4.0 0.00 0.00 0.00 90 1014.0
20260904124536 49 189 1.0 3.0 0.00 0.00 0.00 90 1014.0
20260904123036 49 157 0.0 0.0 0.00 0.00 0.00 90 1014.0
20260904121537 49 157 0.0 1.0 0.00 0.00 0.00 90 1014.0
20260904114537 49 163 1.0 3.0 0.00 0.00 0.00 90 1013.8
20260904113036 50 180 1.0 3.0 0.00 0.00 0.00 90 1013.6
20260904111537 49 168 2.0 4.0 0.00 0.00 0.00 90 1013.5
20260904110038 49 159 3.0 5.0 0.00 0.00 0.00 90 1013.5
20260904104537 49 175 2.0 4.0 0.00 0.00 0.00 90 1013.3
20260904101536 48 168 3.0 6.0 0.00 0.00 0.00 91 1013.2
20260904100036 48 166 2.0 5.0 0.00 0.00 0.00 91 1013.0
20260904094537 48 157 0.0 1.0 0.00 0.00 0.00 91 1012.9
20260904093038 47 169 2.0 4.0 0.00 0.00 0.00 90 1012.9
20260904090036 48 178 0.0 3.0 0.00 0.00 0.00 90 1012.8
20260904084537 48 163 3.0 5.0 0.00 0.00 0.00 90 1012.8
20260904083036 48 168 3.0 5.0 0.00 0.00 0.00 90 1012.7
20260904080039 48 159 0.0 4.0 0.00 0.00 0.00 91 1012.8
20260904074536 48 161 1.0 6.0 0.00 0.00 0.00 91 1012.7
20260904073038 48 167 3.0 6.0 0.00 0.00 0.00 90 1012.6
20260904070038 47 159 3.0 7.0 0.00 0.00 0.00 89 1012.6
20260904064536 46 158 4.0 6.0 0.00 0.00 0.00 88 1012.6
20260904063037 47 189 2.0 5.0 0.00 0.01 0.00 88 1012.4
20260904060037 49 157 0.0 3.0 0.00 0.01 0.00 87 1012.2
20260904054537 50 159 2.0 4.0 0.00 0.01 0.00 87 1012.3
20260904053038 51 158 2.0 4.0 0.00 0.01 0.00 87 1012.4
20260904051536 51 155 2.0 5.0 0.00 0.01 0.00 87 1012.5
20260904050038 51 183 2.0 4.0 0.00 0.01 0.00 87 1012.4
20260904044538 51 244 0.0 3.0 0.00 0.01 0.00 87 1012.3
20260904043037 51 187 1.0 5.0 0.00 0.01 0.00 87 1012.4
20260904041537 51 187 2.0 5.0 0.00 0.01 0.00 87 1012.6
20260904040036 51 175 2.0 4.0 0.00 0.01 0.00 87 1012.6
20260904034537 51 161 3.0 5.0 0.00 0.01 0.00 86 1012.5
20260904033038 51 169 3.0 7.0 0.00 0.02 0.00 85 1012.4
20260904031536 52 183 2.0 5.0 0.00 0.03 0.00 84 1012.1
20260904030036 52 242 0.0 3.0 0.00 0.09 0.00 83 1012.0
20260904024536 52 244 1.0 5.0 0.00 0.09 0.00 82 1011.9
20260904021538 54 304 3.0 12.0 0.00 0.09 0.00 77 1011.5
20260904020030 55 240 1.0 10.0 0.00 0.09 0.00 75 1011.7
20260904014538 55 323 0.0 2.0 0.00 0.09 0.00 74 1011.7
20260904013037 56 289 1.0 5.0 0.00 0.09 0.00 73 1011.4
20260904011537 56 283 3.0 10.0 0.00 0.09 0.00 72 1011.3
20260904010039 57 293 5.0 11.0 0.00 0.09 0.00 71 1011.2
20260904004536 58 289 6.0 12.0 0.00 0.09 0.00 70 1011.2
20260904003036 58 290 8.0 16.0 0.00 0.09 0.00 69 1011.1
20260904001529 59 294 7.0 18.0 0.00 0.09 0.00 66 1011.2
20260904000037 60 297 6.0 14.0 0.00 0.09 0.00 63 1011.1
20260903234613 61 300 6.0 13.0 0.00 0.09 0.00 59 1011.0
20260903233033 63 310 3.0 11.0 0.00 0.09 0.00 56 1011.1
20260903231607 66 301 3.0 9.0 0.00 0.09 0.00 51 1011.0
20260903230112 68 262 2.0 12.0 0.00 0.09 0.00 47 1010.9
20260903224530 67 143 0.0 6.0 0.00 0.09 0.00 47 1011.0
20260903223153 67 136 1.0 8.0 0.00 0.09 0.00 47 1011.3
20260903221530 68 155 2.0 10.0 0.00 0.09 0.00 48 1011.3
20260903220037 67 163 3.0 12.0 0.00 0.09 0.00 50 1011.5
20260903214535 65 188 3.0 9.0 0.00 0.09 0.00 53 1011.6
20260903213033 67 233 2.0 10.0 0.00 0.09 0.00 52 1011.6
20260903211541 67 220 1.0 7.0 0.00 0.09 0.00 54 1011.5
20260903210036 68 279 3.0 10.0 0.00 0.09 0.00 54 1011.6
20260903204536 66 214 4.0 14.0 0.00 0.09 0.00 52 1011.8
20260903203036 67 186 5.0 14.0 0.00 0.09 0.00 53 1011.8
20260903200035 65 173 8.0 17.0 0.00 0.09 0.00 61 1012.2
20260903193032 61 176 6.0 13.0 0.00 0.09 0.00 73 1012.7
20260903191537 59 162 2.0 10.0 0.00 0.09 0.00 82 1013.0
20260903184532 57 332 1.0 6.0 0.00 0.09 0.00 86 1013.2
20260903183031 57 319 2.0 7.0 0.00 0.09 0.00 86 1013.2
20260903181538 56 318 1.0 7.0 0.00 0.09 0.00 86 1013.2
20260903174530 55 323 1.0 6.0 0.00 0.09 0.00 89 1013.1
20260903173036 55 328 0.0 6.0 0.00 0.09 0.00 89 1013.1
20260903170031 54 301 0.0 5.0 0.00 0.09 0.00 90 1013.2
20260903164535 53 311 1.0 6.0 0.00 0.09 0.00 90 1013.3
20260903163032 54 247 2.0 5.0 0.00 0.09 0.00 91 1013.3
20260903160039 54 242 1.0 4.0 0.00 0.09 0.00 93 1013.3
20260903154530 51 267 0.0 4.0 0.00 0.09 0.00 94 1013.2
20260903153036 49 345 0.0 0.0 0.00 0.09 0.00 95 1013.2
20260903151538 49 360 0.0 0.0 0.00 0.09 0.00 95 1013.2
20260903150036 49 45 0.0 0.0 0.00 0.09 0.00 95 1013.3